* Astronomy

Members Login
Post Info TOPIC: Asteroid 2013 BV15


L

Posts: 109766
Date:
RE: Asteroid 2013 BV15
 
 


The 38 - 86 metre wide asteroid 2013 BV15 will make a close pass (3.7 lunar distances, 0.0095 AU), travelling at 8.24 km/second, to the Earth-Moon system on the 13th February, 2013 @ 06:32 UT ±02:54. 

See more

The Lunar Distance (LD), the distance between Earth and the Moon, equals 384,401 km, (or 0.00256 AU).



__________________


L

Posts: 109766
Date:
 
 

Orbital elements:
2013 BV15                                                Earth MOID = 0.0049 AU
Epoch 2012 Sept. 30.0 TT = JDT 2456200.5                MPC
M 271.55599              (2000.0)            P               Q
n   0.52213257     Peri.   11.86933     -0.99141800     +0.13072811
a   1.5273862      Node   175.64215     -0.12070313     -0.91325104
e   0.4051396      Incl.    0.54198     -0.05021065     -0.38585320
P   1.89           H   24.1           G   0.15           U   9

MPEC 2013 - B28

Key to Orbital elements



__________________
Page 1 of 1  sorted by
 
Quick Reply

Please log in to post quick replies.



Create your own FREE Forum
Report Abuse
Powered by ActiveBoard